Retour au catalogue

NOAA 16 DEB

ActifPO
NORAD 41711·DEBRIS·🇺🇸 United States

Lancé Sep 21, 2000 depuis Vandenberg Space Force Base

Loading…

Prochains Passages (prochaines 24 heures)

TLE

FraisSource: Space-Track

Époque: Sep 13, 2026, 14:08 UTC

1 41711U 00055PR  26256.58911360  .00006476  00000-0  16595-2 0  9999
2 41711  98.7984  27.6135 0009096 260.0248  99.9919 14.50659272540940

Suivez NOAA 16 DEB en temps réel avec AllMySat

Download on the App Store